Hourly Data Report for February 13, 2004

TORONTO CITY
ONTARIO

43°40'00.000" N
79°24'00.000" W
112.50 m
6158355
71508
XTO

Download Data

Hourly Data (February 2004)
Hourly Data Report for February 13, 2004
TIME
LST
Temp Definition
°C
Dew Point Definition
°C
Rel Hum Definition
%
Precip. Amount Definition
mm

Wind Dir Definition
10's deg

Wind Spd Definition
km/h
Visibility Definition
km
Stn Press Definition
kPa
Hmdx Definition


Wind Chill Definition


Weather Definition


00:00 -4.8 -8.2 77   LegendMM LegendMM LegendMM 100.45     LegendNANA
01:00 -4.1 -7.4 78   LegendMM LegendMM LegendMM 100.41     LegendNANA
02:00 -3.5 -7.0 77   LegendMM LegendMM LegendMM 100.34     LegendNANA
03:00 -2.6 -6.2 76   LegendMM LegendMM LegendMM 100.25     LegendNANA
04:00 -2.1 -5.3 79   LegendMM LegendMM LegendMM 100.20     LegendNANA
05:00 -2.0 -6.0 74   LegendMM LegendMM LegendMM 100.13     LegendNANA
06:00 -2.2 -6.6 72   LegendMM LegendMM LegendMM 100.14     LegendNANA
07:00 -2.2 -7.5 67   LegendMM LegendMM LegendMM 100.12     LegendNANA
08:00 -2.6 -7.6 68   LegendMM LegendMM LegendMM 100.18     LegendNANA
09:00 -2.3 -7.6 67   LegendMM LegendMM LegendMM 100.14     LegendNANA
10:00 -1.7 -7.2 66   LegendMM LegendMM LegendMM 100.09     LegendNANA
11:00 -1.2 -6.6 67   LegendMM LegendMM LegendMM 100.08     LegendNANA
12:00 0.3 -7.5 56   LegendMM LegendMM LegendMM 100.00     LegendNANA
13:00
14:00 1.0 -6.9 56   LegendMM LegendMM LegendMM 99.82     LegendNANA
15:00 0.1 -5.5 66   LegendMM LegendMM LegendMM 99.75     LegendNANA
16:00 -0.5 -6.4 64   LegendMM LegendMM LegendMM 99.71     LegendNANA
17:00 -1.1 -6.6 66   LegendMM LegendMM LegendMM 99.68     LegendNANA
18:00 -1.8 -6.6 70   LegendMM LegendMM LegendMM 99.66     LegendNANA
19:00 -2.2 -6.9 70   LegendMM LegendMM LegendMM 99.64     LegendNANA
20:00 -2.5 -7.1 71   LegendMM LegendMM LegendMM 99.66     LegendNANA
21:00 -2.8 -7.2 72   LegendMM LegendMM LegendMM 99.64     LegendNANA
22:00 -3.0 -7.7 70   LegendMM LegendMM LegendMM 99.65     LegendNANA
23:00 -3.2 -8.0 69   LegendMM LegendMM LegendMM 99.67     LegendNANA

Notes on Data Quality.

Legend

  • E = Estimated
  • M = Missing
  • NA = Not Available*
  • [empty] = Indicates an unobserved value
Date modified: